Regional Weather Roundup
Issued by NWS Upton, NY

Current Version | Previous Version | Text Only | Print | Product List | Glossary On
Versions: 1 2 3 4 5 6 7 8 9 10 11 12 13 14 15 16 17 18 19 20 21 22 23 24 25 26 27 28 29 30 31 32 33 34 35 36 37 38 39 40 41 42 43 44 45 46 47 48 49 50
000 ASUS41 KOKX 241705 RWROKX Regional Weather Roundup National Weather Service New York NY 100 PM EDT THU MAY 24 2018 Note: "FAIR" indicates few or no clouds below 12,000 feet with no significant weather and/or obstructions to visibility. NYZ071-072-176-178-NJZ106-104-241800- New York City Metro Area CITY SKY/WX TMP DP RH WIND PRES REMARKS Central Park FAIR 80 36 20 CALM 30.16S Bronx Bot Gard N/A 79 37 22 N3 30.15F Bronx Lehman C N/A 77 34 20 NW2 N/A LaGuardia Arpt FAIR 79 35 20 NE10 30.12F Queens College N/A 77 34 20 NE9 N/A Kennedy Intl FAIR 79 36 21 N9 30.13F Breezy Point N/A 77 N/A N/A S5 N/A Brooklyn Coll N/A 79 36 21 W7 N/A Staten Island N/A 79 36 21 N8 N/A Newark/Liberty FAIR 80 39 23 VRB6G17 30.12F Teterboro FAIR 80 43 26 VRB6 30.11F $$ NYZ177-179-078>081-241800- Long Island New York CITY SKY/WX TMP DP RH WIND PRES REMARKS Jones Beach N/A 73 N/A N/A N13G18 N/A Wantagh N/A 79 36 21 N9 N/A Hempstead N/A 79 37 22 N10 30.16S Matinecock Pt N/A 75 N/A N/A SW1 N/A Farmingdale FAIR 78 38 23 N9 30.12F MacArthur/ISP FAIR 78 36 21 N12 30.12F Stony Brook N/A 73 37 27 NW6 N/A Shirley FAIR 77 38 24 NW12 30.12F Mt Sinai Harb N/A N/A N/A N/A NW2 N/A Westhampton FAIR 78 31 17 NW14G22 30.13F East Hampton FAIR 74 41 30 NW5 30.11S Southold N/A 72 46 40 W5 N/A Montauk N/A 61 56 83 S8 30.14R $$ NYZ052-065-067-241800- Hudson Valley CITY SKY/WX TMP DP RH WIND PRES REMARKS White Plains FAIR 77 35 21 N10 30.13F Larchmont Harb N/A 72 N/A N/A E6 N/A Croton On Huds N/A 82 N/A N/A N2 N/A Somers N/A 75 39 27 N6 N/A Brewster N/A 73 37 27 N8 N/A Newburgh SUNNY 75 46 35 VRB6 30.14F Montgomery FAIR 77 47 34 E5 30.11F Otisville N/A 77 41 27 N6 N/A Warwick N/A 79 43 27 NW10 N/A Suffern N/A 77 37 24 NW8 N/A Poughkeepsie FAIR 77 42 28 N8 30.11F Albany FAIR 75 39 27 NW12 30.12F $$ NJZ001-105-106-008-010-013-015-019>022-104-241800- New Jersey CITY SKY/WX TMP DP RH WIND PRES REMARKS Newark/Liberty FAIR 80 39 23 VRB6G17 30.12F Teterboro FAIR 80 43 26 VRB6 30.11F Caldwell FAIR 79 42 26 VRB5 30.13F Somerville FAIR 80 42 25 CALM 30.11F Linden FAIR 80 40 23 NW7 30.12F Perth Amboy N/A 70 N/A N/A SE9 N/A Sussex FAIR 80 44 27 N12G17 30.13F Andover N/A 79 44 28 N8 30.14F Trenton FAIR 80 44 27 N12G20 30.13F Millville FAIR 81 40 23 N9 30.15S Atlantic City FAIR 83 43 24 NW6 30.14F Wrightstown FAIR 79 44 28 NE7 30.12F Toms River FAIR 80 48 32 CALM 30.14F Belmar FAIR 80 46 30 N7 30.14F $$ PAZ047>061-062-071-241800- Eastern Pennsylvania CITY SKY/WX TMP DP RH WIND PRES REMARKS Philadelphia FAIR 79 43 27 N8 30.15F Allentown FAIR 82 48 30 N10 30.14F Scranton FAIR 75 48 38 W6 30.17F $$ CTZ002-004>006-009-010-012-RIZ004-006-007-MAZ004-011-015-241800- Southern New England In CT CITY SKY/WX TMP DP RH WIND PRES REMARKS Bradley Intl FAIR 78 31 17 N12G21 30.10F Hartford FAIR 78 41 26 NE10 30.09F Danbury FAIR 75 36 24 N14 30.14F Wtrbury/Oxford FAIR 75 38 26 N13G24 30.13F Norwalk Harbor N/A 72 N/A N/A S3 N/A Bridgeport FAIR 80 35 19 N9G17 30.10F Meriden FAIR 78 33 19 N14 30.10F New Haven FAIR 79 32 18 NW12G20 30.10F Chester FAIR 77 37 24 CALM 30.11F Groton FAIR 65 56 72 E13 30.11R Willimantic FAIR 77 37 23 N10 30.10F In RI CITY SKY/WX TMP DP RH WIND PRES REMARKS Providence FAIR 76 40 27 NE9 30.10S Block Island FAIR 60 56 86 SE9 30.13S Westerly FAIR 61 57 87 SE12 30.13R In MA CITY SKY/WX TMP DP RH WIND PRES REMARKS Boston FAIR 60 53 77 E16 30.12S Worcester FAIR 70 32 24 NW17G24 30.11F Westfield FAIR 77 28 16 NW20G28 30.09F Provincetown FAIR 61 46 57 SE8 30.15S Nantucket FAIR 60 42 51 E14 30.14S $$ ANZ330-335-338-340-345-350-353-355-241800- Coastal Marine Observations STATION/POSITION TIME SKY/WX TEMP WIND PRES VSBY WAVE AIR SEA DIR/SP/G HT/PER (UTC) (F) (DEG/KT/KT) (MB) (MI) (FT/S) NY Harb Entrance 1650 66 57 280/ 2/ 4 1020.3 2/ 8 20 S Fire Island 1650 64 59 330/ 4/ 4 1020.5 2/ 6 23 SSW Montauk P 1650 54 57 120/ 8/ 10 1020.5 2/ 6 15 E Barnegat Li 1630 62 N/A 2/ 5 Hudson Canyon 1650 58 55 360/ 6/ 6 1020.0 2/ 8 Kings Point 1630 71 59 30/ 3/ 6 1021.3 Execution Rocks NOT AVBL Western LI Sound NOT AVBL Central LI Sound NOT AVBL Robbins Reef 1648 72 120/ 4/ 6 1020.7 $$ >>>>>>>>>>>>>>>>>>>>>>>>>>>> KEY <<<<<<<<<<<<<<<<<<<<<<<<<<< > < > SKY/WX - Sky Condition/Present Weather < > TMP - Temperature in Fahrenheit < > DP - Dew Point in Fahrenheit < > RH - Relative Humidity in Percent < > WIND - Direction (from) and Speed in MPH < > PRES - Mean Sea Level Pressure (inches of Hg) < > WCI - Wind Chill Index < > VSB - Visibility in Miles < > HX - Heat Index < > TC - Temperature in Celsius < > VRB - Varibale Wind Direction < > < >>>>>>>>>>>>>>>>>>>>>>>>>>>> KEY <<<<<<<<<<<<<<<<<<<<<<<<<<<

USA.gov is the U.S. government's official web portal to all federal, state and local government web resources and services.